| time (UTC) | temp F | wind direction | speed MPH | gust MPH | rain 1hr in | rain 24hr in | rain mn in | humidity % | barometer mb |
| 20260502181257 | 71 | 1 | 1.0 | 4.0 | 0.00 | 0.00 | 0.00 | 62 | 1013.7 |
| 20260502180758 | 71 | 234 | 1.0 | 4.0 | 0.00 | 0.00 | 0.00 | 61 | 1013.8 |
| 20260502180256 | 71 | 145 | 1.0 | 6.0 | 0.00 | 0.00 | 0.00 | 60 | 1013.8 |
| 20260502170244 | 75 | 213 | 4.0 | 9.0 | 0.00 | 0.00 | 0.00 | 54 | 1014.1 |
| 20260502164244 | 75 | 269 | 4.0 | 10.0 | 0.00 | 0.00 | 0.00 | 54 | 1014.2 |
| 20260502163744 | 75 | 213 | 5.0 | 10.0 | 0.00 | 0.00 | 0.00 | 54 | 1014.3 |
| 20260502163244 | 75 | 245 | 5.0 | 10.0 | 0.00 | 0.00 | 0.00 | 54 | 1014.3 |
| 20260502162745 | 75 | 262 | 4.0 | 9.0 | 0.00 | 0.00 | 0.00 | 54 | 1014.3 |
| 20260502161744 | 76 | 237 | 5.0 | 9.0 | 0.00 | 0.00 | 0.00 | 53 | 1014.4 |
| 20260502160744 | 75 | 283 | 4.0 | 9.0 | 0.00 | 0.00 | 0.00 | 55 | 1014.4 |
| 20260502160244 | 75 | 252 | 4.0 | 9.0 | 0.00 | 0.00 | 0.00 | 53 | 1014.4 |
| 20260502152234 | 76 | 246 | 6.0 | 11.0 | 0.00 | 0.00 | 0.00 | 51 | 1014.9 |
| 20260502151232 | 76 | 275 | 6.0 | 11.0 | 0.00 | 0.00 | 0.00 | 51 | 1015.0 |
| 20260502150732 | 76 | 247 | 6.0 | 11.0 | 0.00 | 0.00 | 0.00 | 50 | 1015.0 |
| 20260502150233 | 77 | 269 | 5.0 | 11.0 | 0.00 | 0.00 | 0.00 | 50 | 1015.0 |
| 20260502130707 | 78 | 218 | 6.0 | 12.0 | 0.00 | 0.00 | 0.00 | 40 | 1015.5 |
| 20260502130206 | 79 | 245 | 5.0 | 12.0 | 0.00 | 0.00 | 0.00 | 41 | 1015.4 |
| 20260502123706 | 77 | 201 | 6.0 | 13.0 | 0.00 | 0.00 | 0.00 | 41 | 1015.6 |
| 20260502123204 | 78 | 203 | 7.0 | 15.0 | 0.00 | 0.00 | 0.00 | 39 | 1015.6 |
| 20260502122204 | 77 | 248 | 6.0 | 13.0 | 0.00 | 0.00 | 0.00 | 42 | 1015.6 |
| 20260502121704 | 77 | 214 | 6.0 | 15.0 | 0.00 | 0.00 | 0.00 | 41 | 1015.6 |
| 20260502120659 | 76 | 229 | 7.0 | 16.0 | 0.00 | 0.00 | 0.00 | 41 | 1015.7 |
| 20260502120159 | 77 | 195 | 7.0 | 16.0 | 0.00 | 0.00 | 0.00 | 40 | 1015.8 |
| 20260502115701 | 77 | 214 | 7.0 | 15.0 | 0.00 | 0.00 | 0.00 | 40 | 1015.8 |
| 20260502115159 | 78 | 243 | 7.0 | 15.0 | 0.00 | 0.00 | 0.00 | 40 | 1015.9 |
| 20260502114657 | 78 | 173 | 7.0 | 13.0 | 0.00 | 0.00 | 0.00 | 41 | 1016.1 |
| 20260502114159 | 78 | 222 | 9.0 | 16.0 | 0.00 | 0.00 | 0.00 | 38 | 1016.1 |
| 20260502113658 | 78 | 220 | 8.0 | 16.0 | 0.00 | 0.00 | 0.00 | 40 | 1016.3 |
| 20260502111653 | 79 | 237 | 6.0 | 14.0 | 0.00 | 0.00 | 0.00 | 32 | 1016.4 |
| 20260502110152 | 78 | 222 | 6.0 | 14.0 | 0.00 | 0.00 | 0.00 | 33 | 1016.5 |
| 20260502105652 | 78 | 213 | 5.0 | 11.0 | 0.00 | 0.00 | 0.00 | 32 | 1016.5 |
| 20260502105152 | 77 | 202 | 4.0 | 10.0 | 0.00 | 0.00 | 0.00 | 32 | 1016.7 |
| 20260502104150 | 76 | 206 | 5.0 | 11.0 | 0.00 | 0.00 | 0.00 | 34 | 1016.6 |
| 20260502103649 | 76 | 220 | 6.0 | 12.0 | 0.00 | 0.00 | 0.00 | 35 | 1016.7 |
| 20260502103149 | 76 | 228 | 6.0 | 12.0 | 0.00 | 0.00 | 0.00 | 35 | 1016.6 |
| 20260502102648 | 74 | 215 | 5.0 | 11.0 | 0.00 | 0.00 | 0.00 | 35 | 1016.8 |
| 20260502102151 | 74 | 225 | 5.0 | 11.0 | 0.00 | 0.00 | 0.00 | 36 | 1016.8 |
| 20260502101146 | 75 | 235 | 9.0 | 14.0 | 0.00 | 0.00 | 0.00 | 35 | 1016.9 |
| 20260502100645 | 75 | 225 | 8.0 | 15.0 | 0.00 | 0.00 | 0.00 | 35 | 1017.1 |
| 20260502100143 | 75 | 176 | 7.0 | 15.0 | 0.00 | 0.00 | 0.00 | 32 | 1017.0 |
| 20260502091136 | 74 | 165 | 4.0 | 10.0 | 0.00 | 0.00 | 0.00 | 35 | 1017.1 |
| 20260502090635 | 75 | 212 | 5.0 | 11.0 | 0.00 | 0.00 | 0.00 | 35 | 1017.0 |
| 20260502090134 | 75 | 216 | 5.0 | 11.0 | 0.00 | 0.00 | 0.00 | 36 | 1017.1 |
| 20260502071121 | 65 | 135 | 3.0 | 9.0 | 0.00 | 0.00 | 0.00 | 51 | 1017.8 |
| 20260502070621 | 65 | 201 | 4.0 | 9.0 | 0.00 | 0.00 | 0.00 | 52 | 1017.8 |
| 20260502064621 | 62 | 210 | 5.0 | 10.0 | 0.00 | 0.00 | 0.00 | 55 | 1017.7 |
| 20260502064121 | 62 | 150 | 6.0 | 11.0 | 0.00 | 0.00 | 0.00 | 57 | 1017.8 |
| 20260502063621 | 61 | 148 | 6.0 | 11.0 | 0.00 | 0.00 | 0.00 | 59 | 1017.8 |
| 20260502063120 | 60 | 155 | 5.0 | 10.0 | 0.00 | 0.00 | 0.00 | 59 | 1017.8 |
| 20260502062619 | 60 | 171 | 5.0 | 10.0 | 0.00 | 0.00 | 0.00 | 60 | 1017.8 |
| 20260502062119 | 59 | 163 | 5.0 | 10.0 | 0.00 | 0.00 | 0.00 | 60 | 1017.8 |
| 20260502061611 | 59 | 178 | 5.0 | 10.0 | 0.00 | 0.00 | 0.00 | 61 | 1017.7 |
| 20260502061111 | 58 | 132 | 4.0 | 9.0 | 0.00 | 0.00 | 0.00 | 61 | 1017.8 |
| 20260502060611 | 58 | 175 | 4.0 | 8.0 | 0.00 | 0.00 | 0.00 | 63 | 1017.9 |
| 20260502060110 | 57 | 135 | 3.0 | 8.0 | 0.00 | 0.00 | 0.00 | 63 | 1018.0 |
| 20260502055609 | 57 | 146 | 3.0 | 7.0 | 0.00 | 0.00 | 0.00 | 64 | 1018.0 |
| 20260502055105 | 56 | 170 | 3.0 | 7.0 | 0.00 | 0.00 | 0.00 | 65 | 1018.0 |
| 20260502054605 | 55 | 143 | 3.0 | 7.0 | 0.00 | 0.00 | 0.00 | 67 | 1018.0 |
| 20260502054104 | 54 | 162 | 4.0 | 8.0 | 0.00 | 0.00 | 0.00 | 67 | 1017.9 |
| 20260502053604 | 54 | 193 | 5.0 | 10.0 | 0.00 | 0.00 | 0.00 | 67 | 1017.9 |
| 20260502053105 | 53 | 168 | 5.0 | 10.0 | 0.00 | 0.00 | 0.00 | 67 | 1018.0 |
| 20260502052100 | 53 | 169 | 4.0 | 10.0 | 0.00 | 0.00 | 0.00 | 68 | 1017.9 |
| 20260502051057 | 53 | 166 | 4.0 | 8.0 | 0.00 | 0.00 | 0.00 | 68 | 1018.0 |
| 20260502050610 | 52 | 165 | 5.0 | 8.0 | 0.00 | 0.00 | 0.00 | 68 | 1017.9 |
| 20260502050058 | 52 | 135 | 5.0 | 9.0 | 0.00 | 0.00 | 0.00 | 67 | 1017.9 |
| 20260502045557 | 52 | 146 | 4.0 | 9.0 | 0.00 | 0.00 | 0.00 | 67 | 1017.9 |
| 20260502044553 | 52 | 136 | 4.0 | 10.0 | 0.00 | 0.00 | 0.00 | 67 | 1017.9 |
| 20260502044055 | 52 | 178 | 4.0 | 9.0 | 0.00 | 0.00 | 0.00 | 68 | 1018.0 |
| 20260502043556 | 52 | 136 | 4.0 | 9.0 | 0.00 | 0.00 | 0.00 | 68 | 1018.0 |
| 20260502043048 | 52 | 152 | 4.0 | 9.0 | 0.00 | 0.00 | 0.00 | 68 | 1018.0 |
| 20260502042546 | 52 | 174 | 4.0 | 8.0 | 0.00 | 0.00 | 0.00 | 68 | 1018.0 |
| 20260502042047 | 52 | 167 | 4.0 | 8.0 | 0.00 | 0.00 | 0.00 | 67 | 1018.0 |
| 20260502041043 | 52 | 137 | 4.0 | 10.0 | 0.00 | 0.00 | 0.00 | 67 | 1018.1 |
| 20260502040545 | 52 | 156 | 4.0 | 10.0 | 0.00 | 0.00 | 0.00 | 67 | 1018.2 |
| 20260502040041 | 52 | 169 | 4.0 | 10.0 | 0.00 | 0.00 | 0.00 | 67 | 1018.1 |
| 20260502035542 | 52 | 131 | 4.0 | 10.0 | 0.00 | 0.00 | 0.00 | 66 | 1018.2 |
| 20260502034539 | 52 | 155 | 4.0 | 8.0 | 0.00 | 0.00 | 0.00 | 65 | 1018.3 |
| 20260502034040 | 53 | 127 | 4.0 | 8.0 | 0.00 | 0.00 | 0.00 | 65 | 1018.3 |
| 20260502033538 | 53 | 142 | 5.0 | 9.0 | 0.00 | 0.00 | 0.00 | 65 | 1018.2 |
| 20260502032537 | 53 | 136 | 4.0 | 8.0 | 0.00 | 0.00 | 0.00 | 64 | 1018.3 |
| 20260502032036 | 53 | 133 | 5.0 | 8.0 | 0.00 | 0.00 | 0.00 | 64 | 1018.3 |
| 20260502031536 | 54 | 138 | 5.0 | 8.0 | 0.00 | 0.00 | 0.00 | 63 | 1018.3 |
| 20260502031035 | 54 | 137 | 5.0 | 9.0 | 0.00 | 0.00 | 0.00 | 63 | 1018.3 |
| 20260502030534 | 54 | 149 | 5.0 | 9.0 | 0.00 | 0.00 | 0.00 | 63 | 1018.4 |
| 20260502030032 | 54 | 137 | 5.0 | 11.0 | 0.00 | 0.00 | 0.00 | 63 | 1018.4 |
| 20260502025533 | 54 | 146 | 5.0 | 11.0 | 0.00 | 0.00 | 0.00 | 63 | 1018.5 |
| 20260502025032 | 54 | 131 | 5.0 | 10.0 | 0.00 | 0.00 | 0.00 | 63 | 1018.5 |
| 20260502024532 | 54 | 132 | 5.0 | 9.0 | 0.00 | 0.00 | 0.00 | 63 | 1018.6 |
| 20260502024038 | 54 | 133 | 5.0 | 9.0 | 0.00 | 0.00 | 0.00 | 63 | 1018.6 |
| 20260502023536 | 54 | 150 | 5.0 | 9.0 | 0.00 | 0.00 | 0.00 | 63 | 1018.6 |
| 20260502023033 | 54 | 165 | 5.0 | 9.0 | 0.00 | 0.00 | 0.00 | 63 | 1018.7 |
| 20260502022531 | 55 | 148 | 5.0 | 9.0 | 0.00 | 0.00 | 0.00 | 63 | 1018.8 |
| 20260502022031 | 55 | 152 | 5.0 | 9.0 | 0.00 | 0.00 | 0.00 | 63 | 1018.8 |
| 20260502021532 | 54 | 163 | 4.0 | 10.0 | 0.00 | 0.00 | 0.00 | 63 | 1018.8 |
| 20260502021030 | 55 | 137 | 4.0 | 10.0 | 0.00 | 0.00 | 0.00 | 63 | 1018.9 |
| 20260502020030 | 55 | 195 | 4.0 | 10.0 | 0.00 | 0.00 | 0.00 | 62 | 1019.1 |
| 20260502015528 | 55 | 122 | 4.0 | 7.0 | 0.00 | 0.00 | 0.00 | 62 | 1019.0 |
| 20260502015027 | 55 | 126 | 4.0 | 7.0 | 0.00 | 0.00 | 0.00 | 62 | 1019.1 |
| 20260502014528 | 55 | 105 | 4.0 | 8.0 | 0.00 | 0.00 | 0.00 | 62 | 1019.1 |
| 20260502014028 | 55 | 119 | 5.0 | 8.0 | 0.00 | 0.00 | 0.00 | 62 | 1019.1 |
| 20260502013525 | 55 | 160 | 5.0 | 9.0 | 0.00 | 0.00 | 0.00 | 62 | 1019.2 |
| 20260502013028 | 55 | 157 | 5.0 | 9.0 | 0.00 | 0.00 | 0.00 | 62 | 1019.3 |
| 20260502012525 | 56 | 135 | 4.0 | 7.0 | 0.00 | 0.00 | 0.00 | 62 | 1019.2 |
| 20260502011522 | 56 | 160 | 4.0 | 8.0 | 0.00 | 0.00 | 0.00 | 62 | 1019.4 |
| 20260502010018 | 56 | 114 | 4.0 | 8.0 | 0.00 | 0.00 | 0.00 | 62 | 1019.5 |
| 20260502005519 | 56 | 124 | 4.0 | 8.0 | 0.00 | 0.00 | 0.00 | 62 | 1019.6 |
| 20260502005020 | 56 | 135 | 4.0 | 8.0 | 0.00 | 0.00 | 0.00 | 62 | 1019.7 |
| 20260502004516 | 56 | 122 | 4.0 | 8.0 | 0.00 | 0.00 | 0.00 | 61 | 1019.7 |
| 20260502004015 | 56 | 141 | 5.0 | 8.0 | 0.00 | 0.00 | 0.00 | 61 | 1019.8 |
| 20260502003514 | 56 | 138 | 4.0 | 8.0 | 0.00 | 0.00 | 0.00 | 61 | 1019.8 |
| 20260502003012 | 56 | 114 | 4.0 | 8.0 | 0.00 | 0.00 | 0.00 | 61 | 1019.9 |
| 20260502002514 | 56 | 152 | 4.0 | 7.0 | 0.00 | 0.00 | 0.00 | 62 | 1020.0 |
| 20260502002010 | 56 | 155 | 4.0 | 6.0 | 0.00 | 0.00 | 0.00 | 62 | 1020.0 |
| 20260502001508 | 56 | 138 | 3.0 | 6.0 | 0.00 | 0.00 | 0.00 | 62 | 1020.1 |
| 20260502001009 | 56 | 147 | 3.0 | 6.0 | 0.00 | 0.00 | 0.00 | 62 | 1020.1 |
| 20260502000505 | 56 | 148 | 3.0 | 6.0 | 0.00 | 0.00 | 0.00 | 62 | 1020.2 |
| 20260502000005 | 56 | 163 | 3.0 | 7.0 | 0.00 | 0.00 | 0.00 | 62 | 1020.1 |
| 20260501235506 | 56 | 157 | 3.0 | 7.0 | 0.00 | 0.00 | 0.00 | 61 | 1020.2 |
| 20260501234504 | 56 | 135 | 3.0 | 7.0 | 0.00 | 0.00 | 0.00 | 62 | 1020.2 |
| 20260501234007 | 56 | 159 | 3.0 | 6.0 | 0.00 | 0.00 | 0.00 | 62 | 1020.4 |
| 20260501233504 | 56 | 138 | 3.0 | 6.0 | 0.00 | 0.00 | 0.00 | 62 | 1020.3 |
| 20260501233004 | 56 | 128 | 3.0 | 6.0 | 0.00 | 0.00 | 0.00 | 62 | 1020.3 |
| 20260501232004 | 56 | 127 | 3.0 | 6.0 | 0.00 | 0.00 | 0.00 | 62 | 1020.4 |
| 20260501231506 | 56 | 142 | 3.0 | 6.0 | 0.00 | 0.00 | 0.00 | 61 | 1020.4 |
| 20260501231004 | 56 | 135 | 3.0 | 6.0 | 0.00 | 0.00 | 0.00 | 61 | 1020.5 |
| 20260501225505 | 56 | 138 | 3.0 | 6.0 | 0.00 | 0.00 | 0.00 | 61 | 1020.5 |
| 20260501225004 | 56 | 135 | 3.0 | 6.0 | 0.00 | 0.00 | 0.00 | 62 | 1020.5 |
| 20260501224503 | 55 | 130 | 3.0 | 6.0 | 0.00 | 0.00 | 0.00 | 62 | 1020.6 |
| 20260501224002 | 55 | 124 | 3.0 | 6.0 | 0.00 | 0.00 | 0.00 | 63 | 1020.6 |
| 20260501223455 | 55 | 166 | 3.0 | 6.0 | 0.00 | 0.00 | 0.00 | 63 | 1020.7 |
| 20260501222955 | 55 | 174 | 3.0 | 5.0 | 0.00 | 0.00 | 0.00 | 62 | 1020.7 |
| 20260501222455 | 55 | 129 | 3.0 | 5.0 | 0.00 | 0.00 | 0.00 | 62 | 1020.7 |
| 20260501221956 | 55 | 201 | 2.0 | 4.0 | 0.00 | 0.00 | 0.00 | 62 | 1020.7 |
| 20260501221454 | 56 | 140 | 2.0 | 4.0 | 0.00 | 0.00 | 0.00 | 61 | 1020.6 |
| 20260501220954 | 56 | 163 | 2.0 | 4.0 | 0.00 | 0.00 | 0.00 | 60 | 1020.7 |
| 20260501215951 | 58 | 172 | 2.0 | 4.0 | 0.00 | 0.00 | 0.00 | 56 | 1020.8 |
| 20260501215451 | 59 | 171 | 2.0 | 6.0 | 0.00 | 0.00 | 0.00 | 55 | 1020.7 |
| 20260501214953 | 60 | 165 | 2.0 | 6.0 | 0.00 | 0.00 | 0.00 | 53 | 1020.8 |
| 20260501214444 | 61 | 139 | 2.0 | 5.0 | 0.00 | 0.00 | 0.00 | 52 | 1020.8 |
| 20260501213945 | 61 | 140 | 2.0 | 5.0 | 0.00 | 0.00 | 0.00 | 52 | 1020.7 |
| 20260501213448 | 62 | 140 | 2.0 | 5.0 | 0.00 | 0.00 | 0.00 | 51 | 1020.7 |
| 20260501212442 | 62 | 122 | 2.0 | 5.0 | 0.00 | 0.00 | 0.00 | 51 | 1020.7 |
| 20260501211942 | 62 | 135 | 3.0 | 5.0 | 0.00 | 0.00 | 0.00 | 50 | 1020.8 |
| 20260501211442 | 62 | 147 | 3.0 | 5.0 | 0.00 | 0.00 | 0.00 | 49 | 1020.7 |
| 20260501210943 | 63 | 126 | 2.0 | 5.0 | 0.00 | 0.00 | 0.00 | 49 | 1020.7 |
| 20260501210442 | 63 | 152 | 2.0 | 5.0 | 0.00 | 0.00 | 0.00 | 48 | 1020.8 |
| 20260501205939 | 64 | 121 | 2.0 | 5.0 | 0.00 | 0.00 | 0.00 | 48 | 1020.9 |
| 20260501204939 | 64 | 145 | 3.0 | 9.0 | 0.00 | 0.00 | 0.00 | 47 | 1020.8 |
| 20260501204432 | 64 | 98 | 3.0 | 9.0 | 0.00 | 0.00 | 0.00 | 47 | 1020.9 |
| 20260501203933 | 65 | 127 | 3.0 | 9.0 | 0.00 | 0.00 | 0.00 | 46 | 1020.9 |
| 20260501203437 | 65 | 150 | 3.0 | 8.0 | 0.00 | 0.00 | 0.00 | 46 | 1021.0 |
| 20260501202934 | 65 | 161 | 3.0 | 7.0 | 0.00 | 0.00 | 0.00 | 46 | 1020.9 |
| 20260501201931 | 65 | 135 | 3.0 | 7.0 | 0.00 | 0.00 | 0.00 | 46 | 1021.0 |
| 20260501201434 | 65 | 166 | 3.0 | 6.0 | 0.00 | 0.00 | 0.00 | 46 | 1021.1 |
| 20260501200432 | 65 | 152 | 2.0 | 6.0 | 0.00 | 0.00 | 0.00 | 46 | 1021.1 |
| 20260501195931 | 65 | 68 | 2.0 | 5.0 | 0.00 | 0.00 | 0.00 | 46 | 1021.1 |
| 20260501195432 | 65 | 152 | 2.0 | 5.0 | 0.00 | 0.00 | 0.00 | 46 | 1021.2 |
| 20260501194932 | 65 | 137 | 2.0 | 6.0 | 0.00 | 0.00 | 0.00 | 47 | 1021.2 |
| 20260501194435 | 65 | 178 | 2.0 | 6.0 | 0.00 | 0.00 | 0.00 | 47 | 1021.2 |
| 20260501193932 | 65 | 105 | 1.0 | 5.0 | 0.00 | 0.00 | 0.00 | 48 | 1021.2 |
| 20260501193432 | 65 | 46 | 1.0 | 5.0 | 0.00 | 0.00 | 0.00 | 47 | 1021.3 |
| 20260501192932 | 65 | 117 | 1.0 | 4.0 | 0.00 | 0.00 | 0.00 | 48 | 1021.2 |
| 20260501192433 | 66 | 135 | 1.0 | 4.0 | 0.00 | 0.00 | 0.00 | 47 | 1021.2 |
| 20260501191432 | 67 | 223 | 1.0 | 6.0 | 0.00 | 0.00 | 0.00 | 45 | 1021.3 |
| 20260501190932 | 67 | 117 | 1.0 | 6.0 | 0.00 | 0.00 | 0.00 | 45 | 1021.3 |
| 20260501185931 | 68 | 135 | 1.0 | 4.0 | 0.00 | 0.00 | 0.00 | 43 | 1021.3 |
| 20260501185432 | 68 | 108 | 2.0 | 4.0 | 0.00 | 0.00 | 0.00 | 43 | 1021.2 |
| 20260501184932 | 68 | 117 | 2.0 | 7.0 | 0.00 | 0.00 | 0.00 | 42 | 1021.2 |
| 20260501184432 | 69 | 122 | 3.0 | 7.0 | 0.00 | 0.00 | 0.00 | 41 | 1021.3 |
| 20260501183432 | 70 | 155 | 3.0 | 7.0 | 0.00 | 0.00 | 0.00 | 40 | 1021.3 |
| 20260501182931 | 70 | 148 | 4.0 | 7.0 | 0.00 | 0.00 | 0.00 | 39 | 1021.3 |
| 20260501182433 | 71 | 165 | 4.0 | 8.0 | 0.00 | 0.00 | 0.00 | 39 | 1021.3 |
| 20260501181930 | 71 | 131 | 4.0 | 7.0 | 0.00 | 0.00 | 0.00 | 38 | 1021.2 |